Weather History for Renton, WA

Change the Weather History Date:

Thursday, February 27, 2014

  Actual Average Record
Temperature  
Mean Temperature 48 °F -  
Max Temperature 53 °F 49 °F 57 °F (2001)
Min Temperature 42 °F 35 °F 28 °F (2002)
Degree Days  
Heating Degree Days 18    
Moisture  
Dew Point 39 °F    
Average Humidity 74    
Maximum Humidity 93    
Minimum Humidity 54    
Precipitation  
Precipitation 0.00 in - - ()
Sea Level Pressure  
Sea Level Pressure 29.71 in    
Wind  
Wind Speed 4 mph (West)    
Max Wind Speed 9 mph    
Max Gust Speed -    
Visibility 10 miles    
Events      
Averages and records for this station are not official NWS values.
T = Trace of Precipitation, MM = Missing Value Source: NWS Daily Summary

Daily Weather History Graph

Daily Weather History Graph

Search for Another Location

Airport:

Trip Planner

Search our weather history database for the weather conditions in past years. The results will help you decide how hot, cold, wet, or windy it might be!

Date:

Astronomy

Feb. 27, 2014 Rise Set
Actual Time 6:52 AM PST 5:51 PM PST
Civil Twilight 6:21 AM PST 6:21 PM PST
Nautical Twilight 5:46 AM PST 6:57 PM PST
Astronomical Twilight 5:10 AM PST 7:33 PM PST
Moon 5:34 AM PST (2/27) 4:19 PM PST (2/27)
Length of Visible Light 12h 00m
Length of Day
10h 58m
Waning Crescent, 3% of the Moon is Illuminated
Feb 27
Waning Crescent
Mar 1
New
Mar 8
First Quarter
Mar 16
Full
Mar 23
Last Quarter

Hourly Weather History & Observations

Time (PST) Temp. Windchill Dew Point Humidity Pressure Visibility Wind Dir Wind Speed Gust Speed Precip Events Conditions
12:53 AM 42.1 °F 40.2 °F 39.0 °F 89% 29.71 in 10.0 mi WNW 3.5 mph - N/A   Clear
1:53 AM 44.1 °F - 41.0 °F 89% 29.70 in 10.0 mi Calm Calm - N/A   Overcast
2:53 AM 43.0 °F - 41.0 °F 93% 29.68 in 10.0 mi Calm Calm - N/A   Overcast
3:53 AM 43.0 °F 37.7 °F 39.0 °F 86% 29.66 in 10.0 mi NW 9.2 mph - N/A   Overcast
4:53 AM 42.1 °F 37.1 °F 37.9 °F 85% 29.65 in 10.0 mi NW 8.1 mph - N/A   Scattered Clouds
5:53 AM 42.1 °F 37.1 °F 39.0 °F 89% 29.65 in 10.0 mi NW 8.1 mph - N/A   Overcast
6:53 AM 42.1 °F 36.6 °F 37.0 °F 82% 29.66 in 10.0 mi NW 9.2 mph - N/A   Scattered Clouds
7:53 AM 43.0 °F 38.2 °F 37.9 °F 82% 29.68 in 10.0 mi WNW 8.1 mph - N/A   Scattered Clouds
8:53 AM 44.1 °F 40.1 °F 39.0 °F 82% 29.69 in 10.0 mi NW 6.9 mph - N/A   Scattered Clouds
9:53 AM 45.0 °F 42.6 °F 37.9 °F 76% 29.71 in 10.0 mi WNW 4.6 mph - N/A   Clear
10:53 AM 48.9 °F - 37.9 °F 66% 29.72 in 10.0 mi Variable 3.5 mph - N/A   Clear
11:53 AM 51.1 °F - 37.0 °F 59% 29.72 in 10.0 mi South 6.9 mph - N/A   Clear
12:53 PM 51.1 °F - 35.1 °F 54% 29.72 in 10.0 mi South 4.6 mph - N/A   Clear
1:53 PM 53.1 °F - 37.9 °F 57% 29.72 in 10.0 mi South 8.1 mph - N/A   Overcast
2:53 PM 53.1 °F - 37.9 °F 57% 29.72 in 10.0 mi NNW 3.5 mph - N/A   Overcast
3:53 PM 53.1 °F - 37.9 °F 57% 29.73 in 10.0 mi Variable 3.5 mph - N/A   Overcast
4:53 PM 52.0 °F - 37.9 °F 59% 29.72 in 10.0 mi SE 3.5 mph - N/A   Overcast
5:53 PM 52.0 °F - 39.9 °F 63% 29.72 in 10.0 mi South 3.5 mph - N/A   Overcast
6:53 PM 52.0 °F - 39.0 °F 61% 29.73 in 10.0 mi Calm Calm - N/A   Overcast
7:53 PM 50.0 °F - 39.9 °F 68% 29.74 in 10.0 mi Calm Calm - N/A   Mostly Cloudy
8:53 PM 48.9 °F - 42.1 °F 77% 29.76 in 10.0 mi Calm Calm - N/A   Overcast
9:53 PM 48.9 °F - 41.0 °F 74% 29.77 in 10.0 mi ESE 3.5 mph - N/A   Overcast
10:53 PM 48.0 °F - 42.1 °F 80% 29.77 in 10.0 mi East 3.5 mph - N/A   Overcast
11:53 PM 46.0 °F 44.8 °F 41.0 °F 83% 29.76 in 10.0 mi SSE 3.5 mph - N/A   Partly Cloudy